This is the latest recevied weather packets stored in our database for station/object FW7644. If no packets are shown the sender has not sent any weather packets the latest 10 day(s).
| Time | Temp. | Humidity | Pressure | Rain* | Wind** | Luminosity | Snow |
|---|---|---|---|---|---|---|---|
| 1777746638 | 17.78° C | 77% | 1020.7 hPa | 0 mm | - | - | - |
| 1777746336 | 18.33° C | 75% | 1020.3 hPa | 0 mm | - | - | - |
| 1777746034 | 18.33° C | 74% | 1020.3 hPa | 0 mm | - | - | - |
| 1777745733 | 18.33° C | 75% | 1020.2 hPa | 0 mm | - | - | - |
| 1777745431 | 18.33° C | 75% | 1020.2 hPa | 0 mm | - | - | - |
| 1777745129 | 18.89° C | 76% | 1020.4 hPa | 0 mm | - | - | - |
| 1777744827 | 17.78° C | 78% | 1020.7 hPa | 0 mm | - | - | - |
| 1777744525 | 17.78° C | 79% | 1020.8 hPa | 0 mm | - | - | - |
| 1777744224 | 17.78° C | 80% | 1020.8 hPa | 0 mm | - | - | - |
| 1777743922 | 17.22° C | 81% | 1020.7 hPa | 0 mm | - | - | - |
| 1777743620 | 17.22° C | 81% | 1020.8 hPa | 0 mm | - | - | - |
| 1777743319 | 17.22° C | 82% | 1020.5 hPa | 0 mm | - | - | - |
| 1777743017 | 17.22° C | 83% | 1020.3 hPa | 0 mm | - | - | - |
| 1777742715 | 17.22° C | 84% | 1020.1 hPa | 0 mm | - | - | - |
| 1777742414 | 17.22° C | 86% | 1020.1 hPa | 0 mm | - | - | - |
| 1777742112 | 16.67° C | 87% | 1020.1 hPa | 0 mm | - | - | - |
| 1777741810 | 16.67° C | 87% | 1020.1 hPa | 0 mm | - | - | - |
| 1777741508 | 16.67° C | 88% | 1020.2 hPa | 0 mm | - | - | - |
| 1777741206 | 16.67° C | 88% | 1020.1 hPa | 0 mm | - | - | - |
| 1777740904 | 16.11° C | 89% | 1020.2 hPa | 0 mm | - | - | - |
| 1777740602 | 16.11° C | 90% | 1020.4 hPa | 0 mm | - | - | - |
| 1777740300 | 16.11° C | 90% | 1020.5 hPa | 0 mm | - | - | - |
| 1777739999 | 16.11° C | 90% | 1020.5 hPa | 0 mm | - | - | - |
| 1777739697 | 16.11° C | 90% | 1020.5 hPa | 0 mm | - | - | - |
| 1777739395 | 16.11° C | 90% | 1020.5 hPa | 0 mm | - | - | - |
* Rain latest hour (hover to see other rain measurements)
** Current wind speed in m/s (hover to see current wind gust speed)